Weather History for Lamar, CO

Change the Weather History Date:

Friday, November 23, 2012

  Actual Average Record
Temperature  
Mean Temperature 34 °F 37 °F  
Max Temperature 55 °F 53 °F 79 °F (1921)
Min Temperature 13 °F 21 °F -1 °F (1941)
Degree Days  
Heating Degree Days 31 28  
Month to date heating degree days 434 539  
Since 1 July heating degree days 891 1006  
Cooling Degree Days 0 0  
Month to date cooling degree days 0 0  
Year to date cooling degree days 1626 1121  
Moisture  
Dew Point 11 °F    
Average Humidity 49    
Maximum Humidity 80    
Minimum Humidity 18    
Precipitation  
Precipitation 0.00 in 0.01 in 0.15 in (1922)
Month to date precipitation 0.13 0.33  
Year to date precipitation 6.06 14.75  
Sea Level Pressure  
Sea Level Pressure 30.47 in    
Wind  
Wind Speed 5 mph (South)    
Max Wind Speed 15 mph    
Max Gust Speed 20 mph    
Visibility 10 miles    
Events      
T = Trace of Precipitation, MM = Missing Value Source: NWS Daily Summary

Daily Weather History Graph

Daily Weather History Graph

Search for Another Location

Airport:

Trip Planner

Search our weather history database for the weather conditions in past years. The results will help you decide how hot, cold, wet, or windy it might be!

Date:

Astronomy

Nov. 23, 2012 Rise Set
Actual Time 6:40 AM MST 4:33 PM MST
Civil Twilight 6:12 AM MST 5:02 PM MST
Nautical Twilight 5:39 AM MST 5:34 PM MST
Astronomical Twilight 5:08 AM MST 6:06 PM MST
Moon 1:46 PM MST (11/23) 2:05 AM MST (11/23)
Length of Visible Light 10h 50m
Length of Day
9h 53m
Waxing Gibbous, 80% of the Moon is Illuminated
Nov 23
Waxing Gibbous
Nov 28
Full
Dec 6
Last Quarter
Dec 13
New
Dec 19
First Quarter

Hourly Weather History & Observations

Time (MST) Temp. Windchill Dew Point Humidity Pressure Visibility Wind Dir Wind Speed Gust Speed Precip Events Conditions
12:53 AM 21.0 °F 12.4 °F 10.0 °F 63% 30.49 in 10.0 mi SSW 6.9 mph - N/A   Clear
1:53 AM 19.9 °F 10.1 °F 10.0 °F 65% 30.50 in 10.0 mi SSW 8.1 mph - N/A   Clear
2:53 AM 19.9 °F - 10.0 °F 65% 30.51 in 10.0 mi Calm Calm - N/A   Clear
3:53 AM 18.0 °F - 9.0 °F 68% 30.53 in 10.0 mi Calm Calm - N/A   Clear
4:53 AM 16.0 °F 6.3 °F 8.1 °F 71% 30.56 in 10.0 mi SSW 6.9 mph - N/A   Clear
5:53 AM 14.0 °F 5.1 °F 7.0 °F 74% 30.60 in 10.0 mi SSW 5.8 mph - N/A   Clear
6:53 AM 14.0 °F 3.9 °F 8.1 °F 77% 30.63 in 10.0 mi SW 6.9 mph - N/A   Clear
7:53 AM 25.0 °F 20.7 °F 12.0 °F 58% 30.63 in 10.0 mi SW 3.5 mph - N/A   Clear
8:53 AM 33.1 °F - 12.9 °F 43% 30.61 in 10.0 mi Calm Calm - N/A   Clear
9:53 AM 39.0 °F - 12.9 °F 34% 30.60 in 10.0 mi Calm Calm - N/A   Clear
10:53 AM 45.0 °F 43.5 °F 12.0 °F 26% 30.57 in 10.0 mi NNE 3.5 mph - N/A   Clear
11:53 AM 46.9 °F - 12.9 °F 25% 30.53 in 10.0 mi Calm Calm - N/A   Clear
12:53 PM 52.0 °F - 10.9 °F 19% 30.47 in 10.0 mi South 12.7 mph 17.3 mph N/A   Clear
1:53 PM 54.0 °F - 10.9 °F 18% 30.44 in 10.0 mi South 11.5 mph - N/A   Clear
2:53 PM 54.0 °F - 10.9 °F 18% 30.42 in 10.0 mi South 9.2 mph - N/A   Clear
3:53 PM 53.1 °F - 12.0 °F 20% 30.40 in 10.0 mi SSE 6.9 mph - N/A   Clear
4:53 PM 42.1 °F - 10.9 °F 28% 30.42 in 10.0 mi North - - N/A   Clear
5:53 PM 39.0 °F 33.4 °F 10.9 °F 32% 30.42 in 10.0 mi ESE 8.1 mph - N/A   Clear
6:53 PM 35.1 °F - 10.9 °F 37% 30.40 in 10.0 mi Calm Calm - N/A   Clear
7:53 PM 30.9 °F - 10.9 °F 43% 30.37 in 10.0 mi Calm Calm - N/A   Clear
8:53 PM 33.1 °F 28.7 °F 12.0 °F 42% 30.34 in 10.0 mi ENE 4.6 mph - N/A   Clear
9:53 PM 27.0 °F - 10.0 °F 49% 30.34 in 10.0 mi Calm Calm - N/A   Clear
10:53 PM 23.0 °F 13.9 °F 9.0 °F 55% 30.31 in 10.0 mi WSW 8.1 mph - N/A   Clear
11:53 PM 24.1 °F - 9.0 °F 53% 30.27 in 10.0 mi Calm Calm - N/A   Clear